Location: Alf�rovka
(48.7000°N, 34.3667°E)
Time: 09:07:03
(UTC+00:00)

Daily predictions for brighter satellites

Satellite Brightness Start Highest point End
(mag) Time Altitude Azimuth Time Altitude Azimuth Time Altitude Azimuth
Cosmos 1602 Rocket 3.6 14:58:58 10° N 15:03:30 88° E 15:07:57 10° S
SMAP 3.1 14:59:06 10° SSE 15:03:45 89° ENE 15:08:27 10° NNW
Cosmos 1703 3.2 15:02:38 10° N 15:06:35 72° E 15:10:30 10° SSE
Aureole 1 Rocket 4.0 15:04:45 10° NW 15:07:33 36° WSW 15:10:22 10° S
Meteor 1-11 4.4 15:02:07 10° N 15:07:42 53° ENE 15:13:19 10° SSE
YAOGAN 6 3.3 15:06:18 10° S 15:09:54 60° W 15:13:33 10° NNW
Cosmos 1741 Rocket 4.0 15:04:38 10° NNW 15:09:56 82° ENE 15:15:10 10° SSE
CZ-2D R/B 4.3 15:07:14 10° ESE 15:10:23 25° ENE 15:13:31 10° N
Timation 2 Rocket 4.4 15:04:33 10° NNW 15:10:50 46° NE 15:17:18 10° ESE
Cosmos 1953 Rocket 4.3 15:07:48 10° N 15:11:46 32° ENE 15:15:44 10° SE
Cosmos 2058 Rocket 4.5 15:08:59 10° SE 15:12:00 18° E 15:15:02 10° NE
Envisat 4.0 15:09:38 10° S 15:14:36 53° W 15:19:36 10° NNW
FengYun 1-2 T 4.3 15:09:08 10° SSE 15:14:46 74° ENE 15:20:25 10° NNW
USA 307 3.7 15:12:23 10° WNW 15:16:28 40° N 15:20:31 10° ENE
COSMOS 2487 2.3 15:13:05 10° NNW 15:16:33 85° ENE 15:19:59 10° SSE
NOAA 11 4.2 15:11:31 10° SSE 15:16:55 69° ENE 15:22:20 10° N
Feng Yun 1-1 Rocket 4.4 15:13:47 10° SSE 15:19:36 66° ENE 15:25:29 10° N
Cosmos 1300 3.6 15:17:32 10° SSE 15:20:49 28° E 15:24:06 10° NNE
GEOS 3 Rocket 4.1 15:16:07 10° ESE 15:21:10 45° NE 15:26:17 10° NNW
USA 308 3.7 15:17:10 10° WNW 15:21:14 40° N 15:25:06 11° ENE
Helios 1A Rocket 3.4 15:22:28 10° SE 15:26:17 37° ENE 15:30:06 10° N
Cosmos 1850 Rocket 4.4 15:21:50 10° NNW 15:27:07 72° WSW 15:32:25 10° SSE
Cosmos 2369 Rocket 3.6 15:22:26 10° WSW 15:27:41 38° NW 15:33:00 10° NNE
Cosmos 2297 Rocket 2.8 15:22:37 10° NNW 15:27:50 36° NE 15:33:01 10° ESE
Aureole 3 Rocket 4.0 15:28:47 10° SE 15:32:00 26° E 15:36:03 10° NNE
PSLV R/B 4.5 15:29:47 10° NNE 15:33:42 37° E 15:37:33 10° SSE
Cosmos 1939 Rocket 2.8 15:30:40 10° SSE 15:34:36 61° ENE 15:38:30 10° N
COSMO-SKYMED 1 2.8 15:32:01 10° NNE 15:36:13 47° E 15:40:25 10° S
Cosmos 1452 Rocket 3.9 15:31:12 10° SSW 15:36:27 70° WNW 15:41:45 10° NNE
ADEOS Rocket 4.0 15:32:04 10° N 15:38:05 55° WNW 15:44:44 10° SW
H-2A R/B 2.9 15:35:06 10° ESE 15:39:47 31° ENE 15:44:32 10° N
Okean O Rocket 3.1 15:35:52 10° S 15:39:59 40° W 15:44:08 10° NNW
MOS 1 Rocket 4.5 15:36:40 10° NE 15:40:06 20° E 15:43:39 10° SE
Cosmos 1408 4.3 15:40:02 10° NNE 15:41:52 15° ENE 15:41:52 15° ENE
H-2A R/B 3.9 15:39:59 10° N 15:43:41 31° WNW 15:47:20 10° SW
FALCON 9 DEB 3.9 15:40:36 10° W 15:43:53 42° N 15:46:09 18° ENE
Cosmos 1689 Rocket 2.1 15:41:22 10° NNE 15:44:12 48° E 15:47:00 10° S
Cosmos 2058 4.2 15:41:22 10° NNE 15:44:27 20° ENE 15:45:29 18° E
IRS-1C Rocket 4.0 15:39:16 10° SSE 15:44:31 81° ENE 15:49:50 10° NNW
Cosmos 1825 Rocket 3.8 15:46:14 10° NNW 15:50:42 75° W 15:55:07 10° S
Meteor 2-21 Rocket 4.4 15:45:03 10° N 15:51:18 87° E 15:57:27 10° S
Cosmos 1340 3.1 15:47:45 10° N 15:51:20 39° ENE 15:54:54 10° SE
CZ-4 R/B 1.4 15:48:21 10° SSE 15:52:10 52° ENE 15:55:57 10° N
Cosmos 2219 3.4 15:47:39 10° NNW 15:53:19 54° ENE 15:58:56 10° SE
ERS-2 3.3 15:50:03 10° N 15:53:32 44° WNW 15:57:00 10° SW
YAOGAN 1 2.7 15:50:40 10° SE 15:54:50 50° ENE 15:59:03 10° N
Lacrosse 5 2.9 15:51:12 10° W 15:55:55 37° NNW 15:59:46 15° NE
BREEZE-M R/B 3.7 15:47:26 10° W 15:56:46 84° N 15:58:24 26° E
Ariane Rocket 4.4 15:58:26 19° ENE 15:58:55 19° ENE 16:02:27 10° NNE
SKYMED 3 4.5 15:55:54 10° NNE 16:00:18 83° ESE 16:04:38 10° SSW
Geosat 4.3 15:57:06 10° NE 16:01:53 42° ESE 16:06:38 10° S
CZ-4C R/B 4.1 15:57:33 10° NW 16:02:29 23° N 16:06:55 14° NE
NOSS 2-2 (E) 4.5 15:57:21 10° NW 16:02:52 82° NE 16:10:35 10° SE
ERBS 4.1 16:00:40 10° WNW 16:03:25 23° NNW 16:05:10 16° NNE
Cosmos 2082 4.5 15:58:53 10° NNW 16:04:03 33° NE 16:06:30 24° E
SAR-Lupe-4 4.2 16:02:09 10° N 16:05:42 58° WNW 16:09:13 10° SSW
Cosmos 44 3.3 16:01:55 10° SSW 16:06:16 52° ESE 16:09:11 21° NE
CZ-4B R/B 3.3 16:03:22 10° N 16:06:19 31° WNW 16:09:10 10° SW
Cosmos 1400 Rocket 2.9 16:03:08 10° S 16:07:09 53° E 16:11:10 10° NNE
Okean-O 2.5 16:03:17 10° SSE 16:07:43 85° ENE 16:12:11 10° NNW
Cosmos 1726 Rocket 3.5 16:04:20 10° S 16:08:40 86° W 16:13:05 10° N
USA 305 3.5 16:04:48 10° WNW 16:08:57 45° N 16:10:42 29° ENE
Cosmos 1745 Rocket 4.2 16:03:03 10° N 16:09:06 47° ENE 16:15:10 10° SSE
SL-08 R/B 4.4 16:04:41 10° N 16:10:52 65° ENE 16:16:56 10° SSE
USA 306 3.4 16:11:03 10° WNW 16:15:12 46° NNE 16:16:40 32° ENE
Aureole 3 2.5 16:14:09 10° S 16:17:27 76° E 16:19:32 18° NNE
NOSS 2-2 (D) 4.4 16:14:17 10° NW 16:19:43 87° NE 16:26:22 14° SE
Cosmos 1331 Rocket 4.2 16:15:04 10° SSW 16:20:13 73° WNW 16:25:24 10° NNE
Cosmos 1606 Rocket 4.5 16:18:53 10° SSW 16:23:07 49° WNW 16:27:25 10° N
ATLAS 5 CENTAUR R/B 3.8 16:21:02 10° WNW 16:24:19 19° NNW 16:27:56 10° NNE
SKYMED 2 4.2 16:20:03 10° N 16:24:20 58° WNW 16:28:35 10° SSW
CZ-2C R/B 3.3 16:21:14 10° SSE 16:27:04 88° WSW 16:32:48 10° NNW
Cosmos 2228 4.3 16:23:43 10° SW 16:27:45 41° WNW 16:31:49 10° N
FALCON 9 DEB 4.1 16:25:16 10° SSW 16:27:29 31° S 16:27:29 31° S
Cosmos 1386 Rocket 4.5 16:23:11 10° N 16:29:35 63° ENE 16:35:52 10° SSE
GENESIS II 4.3 16:26:19 10° SW 16:30:20 77° NW 16:32:03 33° NNE
Cosmos 292 Rocket 3.9 16:26:17 10° SSW 16:31:03 74° WNW 16:35:54 10° NNE
ARGOS 3.2 16:27:38 19° SE 16:31:25 59° ENE 16:36:46 10° N
Cosmos 2227 Rocket 2.1 16:26:03 10° NNW 16:31:44 77° ENE 16:35:16 24° SE
SL-4 R/B 2.1 16:28:25 10° W 16:31:57 52° N 16:32:27 48° NNE
Meteor 2-15 4.4 16:26:09 10° S 16:32:12 61° E 16:38:15 10° NNE
USA 215 3.4 16:30:07 31° E 16:33:15 60° NNE 16:39:40 10° NW
Meteor 2-10 Rocket 3.6 16:29:44 10° S 16:34:57 54° E 16:40:00 10° NNE
FALCON 9 DEB 4.2 16:32:51 10° SW 16:34:54 31° SSW 16:34:54 31° SSW
Cosmos 1346 Rocket 2.7 16:33:15 10° N 16:37:14 65° ENE 16:37:17 65° E
SeaSat 1 2.3 16:35:05 32° SE 16:37:27 78° ENE 16:42:25 10° NNW
ATLAS 2AS CENTAUR R/B 3.7 16:30:58 10° NW 16:37:56 35° NNE 16:40:27 28° ENE
Cosmos 1709 Rocket 4.2 16:33:10 10° N 16:39:18 46° ENE 16:41:09 37° ESE
Cosmos 1656 3.6 16:36:19 10° SSW 16:41:48 63° ESE 16:44:50 27° NE
Cosmos 1892 2.8 16:38:32 10° NNW 16:42:26 78° W 16:44:14 30° S
Cosmos 2263 Rocket 3.5 16:38:19 10° N 16:42:32 23° NE 16:42:32 23° NE
FALCON 9 DEB 4.5 16:40:44 10° SW 16:42:34 29° SSW 16:42:34 29° SSW
CSL-04 Rocket 3.7 16:38:39 10° SSE 16:44:13 85° WSW 16:49:48 10° NNW
Cosmos 968 Rocket 3.4 16:39:14 10° NNW 16:44:30 86° ENE 16:46:53 33° SSE
Cosmos 1302 Rocket 4.1 16:43:24 10° SSW 16:48:39 79° WNW 16:53:59 10° NNE
Cosmos 2058 Rocket 3.8 16:45:11 10° SSW 16:49:33 53° WNW 16:54:00 10° N
Cosmos 1486 Rocket 4.0 16:45:16 10° NNW 16:50:39 83° WSW 16:53:24 30° SSE
Cosmos 1697 Rocket 3.7 16:48:01 10° S 16:51:02 29° SSE 16:51:02 29° SSE
HJ-1C 4.4 16:57:03 44° NW 16:57:03 44° NW 16:59:39 10° NNW
USA 307 3.2 16:52:46 10° WNW 16:56:43 59° N 16:56:43 59° N
Cosmos 883 Rocket 4.4 16:52:12 10° SSE 16:58:12 56° E 17:04:11 10° NNE
GEOS 3 Rocket 4.5 16:55:36 20° S 16:59:09 49° WSW 17:04:23 10° NW
S3M 3.8 16:53:06 10° S 16:59:12 87° E 17:05:24 10° N
Cosmos 1503 Rocket 3.8 16:54:37 10° NNW 16:59:50 72° ENE 17:00:07 70° E
USA 308 3.3 16:57:31 10° WNW 17:01:16 57° NNW 17:01:16 57° NNW
BREEZE-M R/B 3.9 17:00:06 10° W 17:04:34 87° N 17:06:24 53° E
DMSP B5D2-7 4.5 17:06:22 70° ESE 17:06:51 76° ENE 17:12:18 10° NNW
Cosmos 1354 Rocket 3.9 17:04:10 10° NNW 17:09:13 74° NE 17:09:13 74° NE
DEBRIS 4.1 16:53:56 10° WSW 17:11:36 70° SSE 17:12:38 59° ESE
Cosmos 2297 Rocket 3.1 17:06:38 10° NW 17:12:03 47° WSW 17:15:53 19° S
Cosmos 1825 4.2 17:08:18 10° NNW 17:09:40 21° NNW 17:09:40 21° NNW
Cosmos 1408 4.3 17:14:05 10° NNW 17:16:13 29° NW 17:16:13 29° NW
MOS 1 Rocket 4.0 17:14:11 10° N 17:18:37 53° WNW 17:23:18 10° SSW
H-2A R/B 3.1 17:13:51 10° S 17:19:01 46° W 17:24:16 10° NNW
Cosmos 2058 4.0 17:17:41 10° NNW 17:21:33 41° W 17:21:44 40° W
SL-08 RB Rocket 4.4 17:25:04 49° NW 17:25:04 49° NW 17:28:30 10° NNW
Timation 1 Rocket 4.3 17:19:29 10° NNW 17:25:13 74° NNE 17:25:13 74° NNE
CZ-4 R/B 4.3 17:25:12 10° SW 17:27:30 15° W 17:29:48 10° NW
Ariane Rocket 3.7 17:38:38 50° NNW 17:38:38 50° NNW 17:42:28 10° NNW
Lacrosse 5 3.3 17:35:18 10° WNW 17:38:57 31° NNW 17:38:57 31° NNW
Cosmos 2082 4.3 17:42:51 10° NW 17:48:23 52° WSW 17:48:23 52° WSW
CZ-4C R/B 3.6 17:46:29 10° NW 17:52:05 40° NNE 17:52:05 40° NNE
NOSS 3-4 (A) 4.0 18:00:36 10° NW 18:06:19 64° NNW 18:06:19 64° NNW
NOSS 3-4 (C) 4.0 18:00:42 10° NW 18:06:25 64° NNW 18:06:25 64° NNW
ATLAS 5 CENTAUR R/B 4.3 18:07:46 10° NNW 18:09:34 15° N 18:09:34 15° N
Cosmos 2227 Rocket 4.4 18:11:17 10° WNW 18:15:08 19° W 18:17:08 16° SW
USA 215 3.8 18:17:28 54° W 18:17:28 54° W 18:22:46 10° WNW
Cosmos 2263 Rocket 3.9 18:21:42 10° NNW 18:24:14 27° NNW 18:24:14 27° NNW
ATLAS 2AS CENTAUR R/B 3.4 18:22:18 10° NW 18:27:52 52° NW 18:27:52 52° NW
